| time (UTC) | temp F | wind direction | speed knots | gust knots | rain 1hr in | rain 24hr in | rain mn in | humidity % | barometer mb |
| 20260510135501 | 42 | 351 | 7.0 | 12.2 | 0.00 | 0.00 | 0.00 | 57 | 1022.2 |
| 20260510135100 | 42 | 13 | 6.1 | 11.3 | 0.00 | 0.00 | 0.00 | 56 | 1022.1 |
| 20260510134559 | 42 | 360 | 4.3 | 12.2 | 0.00 | 0.00 | 0.00 | 58 | 1022.0 |
| 20260510134059 | 42 | 33 | 7.8 | 11.3 | 0.00 | 0.00 | 0.00 | 58 | 1022.0 |
| 20260510133557 | 42 | 28 | 3.5 | 12.2 | 0.00 | 0.00 | 0.00 | 60 | 1021.9 |
| 20260510133056 | 41 | 13 | 6.1 | 12.2 | 0.00 | 0.00 | 0.00 | 60 | 1021.8 |
| 20260510132556 | 41 | 26 | 6.1 | 13.0 | 0.00 | 0.00 | 0.00 | 60 | 1021.8 |
| 20260510132058 | 41 | 31 | 7.0 | 13.0 | 0.00 | 0.00 | 0.00 | 59 | 1021.7 |
| 20260510131557 | 41 | 331 | 4.3 | 12.2 | 0.00 | 0.00 | 0.00 | 61 | 1021.7 |
| 20260510131053 | 40 | 355 | 6.1 | 12.2 | 0.00 | 0.00 | 0.00 | 62 | 1021.7 |
| 20260510130556 | 40 | 19 | 7.0 | 12.2 | 0.00 | 0.00 | 0.00 | 64 | 1021.6 |
| 20260510130051 | 40 | 355 | 5.2 | 11.3 | 0.00 | 0.00 | 0.00 | 65 | 1021.5 |
| 20260510125550 | 40 | 346 | 5.2 | 11.3 | 0.00 | 0.00 | 0.00 | 65 | 1021.5 |
| 20260510125048 | 40 | 21 | 6.1 | 12.2 | 0.00 | 0.00 | 0.00 | 65 | 1021.4 |
| 20260510124557 | 40 | 346 | 6.1 | 12.2 | 0.00 | 0.00 | 0.00 | 64 | 1021.3 |
| 20260510124050 | 40 | 336 | 6.1 | 13.0 | 0.00 | 0.00 | 0.00 | 64 | 1021.3 |
| 20260510123546 | 40 | 360 | 4.3 | 13.0 | 0.00 | 0.00 | 0.00 | 65 | 1021.1 |
| 20260510123045 | 40 | 347 | 6.1 | 11.3 | 0.00 | 0.00 | 0.00 | 65 | 1021.1 |
| 20260510122545 | 40 | 309 | 3.5 | 11.3 | 0.00 | 0.00 | 0.00 | 66 | 1020.9 |
| 20260510122043 | 40 | 339 | 4.3 | 11.3 | 0.00 | 0.00 | 0.00 | 67 | 1020.9 |
| 20260510121543 | 40 | 19 | 7.8 | 12.2 | 0.00 | 0.00 | 0.00 | 66 | 1020.8 |
| 20260510121043 | 40 | 24 | 5.2 | 12.2 | 0.00 | 0.00 | 0.00 | 67 | 1020.8 |
| 20260510120540 | 40 | 347 | 4.3 | 8.7 | 0.00 | 0.00 | 0.00 | 66 | 1020.7 |
| 20260510120039 | 40 | 24 | 3.5 | 10.4 | 0.00 | 0.00 | 0.00 | 66 | 1020.6 |
| 20260510115538 | 40 | 333 | 5.2 | 9.6 | 0.00 | 0.00 | 0.00 | 65 | 1020.5 |
| 20260510115037 | 41 | 5 | 4.3 | 8.7 | 0.00 | 0.00 | 0.00 | 65 | 1020.4 |
| 20260510114543 | 41 | 9 | 3.5 | 8.7 | 0.00 | 0.00 | 0.00 | 63 | 1020.2 |
| 20260510114036 | 41 | 22 | 3.5 | 8.7 | 0.00 | 0.00 | 0.00 | 63 | 1020.3 |
| 20260510113534 | 41 | 355 | 3.5 | 9.6 | 0.00 | 0.00 | 0.00 | 63 | 1020.2 |
| 20260510113033 | 41 | 346 | 2.6 | 9.6 | 0.00 | 0.00 | 0.00 | 63 | 1020.1 |
| 20260510112533 | 41 | 327 | 3.5 | 7.8 | 0.00 | 0.00 | 0.00 | 64 | 1019.9 |
| 20260510112031 | 41 | 5 | 2.6 | 7.8 | 0.00 | 0.00 | 0.00 | 64 | 1019.9 |
| 20260510111533 | 41 | 10 | 3.5 | 7.8 | 0.00 | 0.00 | 0.00 | 65 | 1019.9 |
| 20260510111029 | 41 | 5 | 3.5 | 7.8 | 0.00 | 0.00 | 0.00 | 65 | 1019.9 |
| 20260510110528 | 41 | 27 | 4.3 | 9.6 | 0.00 | 0.00 | 0.00 | 65 | 1019.8 |
| 20260510110029 | 41 | 360 | 3.5 | 9.6 | 0.00 | 0.00 | 0.00 | 65 | 1019.8 |
| 20260510105526 | 41 | 32 | 4.3 | 9.6 | 0.00 | 0.00 | 0.00 | 65 | 1019.6 |
| 20260510105026 | 41 | 38 | 5.2 | 10.4 | 0.00 | 0.00 | 0.00 | 66 | 1019.5 |
| 20260510104528 | 41 | 360 | 5.2 | 10.4 | 0.00 | 0.00 | 0.00 | 66 | 1019.4 |
| 20260510104026 | 41 | 5 | 5.2 | 11.3 | 0.00 | 0.00 | 0.00 | 66 | 1019.3 |
| 20260510103522 | 42 | 350 | 6.1 | 12.2 | 0.00 | 0.00 | 0.00 | 66 | 1019.2 |
| 20260510103026 | 42 | 31 | 4.3 | 12.2 | 0.00 | 0.00 | 0.00 | 66 | 1019.2 |
| 20260510102521 | 42 | 28 | 3.5 | 13.0 | 0.00 | 0.00 | 0.00 | 65 | 1019.1 |
| 20260510102019 | 42 | 13 | 6.1 | 12.2 | 0.00 | 0.00 | 0.00 | 64 | 1019.1 |
| 20260510101518 | 42 | 26 | 5.2 | 12.2 | 0.00 | 0.00 | 0.00 | 64 | 1019.0 |
| 20260510101017 | 42 | 22 | 7.0 | 12.2 | 0.00 | 0.00 | 0.00 | 65 | 1018.9 |
| 20260510100520 | 42 | 34 | 5.2 | 11.3 | 0.00 | 0.00 | 0.00 | 66 | 1018.8 |
| 20260510100028 | 42 | 16 | 5.2 | 11.3 | 0.00 | 0.00 | 0.00 | 67 | 1018.7 |
| 20260510095515 | 43 | 26 | 5.2 | 12.2 | 0.00 | 0.00 | 0.00 | 67 | 1018.7 |
| 20260510095015 | 43 | 355 | 5.2 | 12.2 | 0.00 | 0.00 | 0.00 | 66 | 1018.6 |
| 20260510094516 | 43 | 25 | 5.2 | 11.3 | 0.00 | 0.00 | 0.00 | 65 | 1018.6 |
| 20260510094011 | 43 | 9 | 5.2 | 12.2 | 0.00 | 0.00 | 0.00 | 63 | 1018.5 |
| 20260510093510 | 43 | 347 | 6.1 | 12.2 | 0.00 | 0.00 | 0.00 | 62 | 1018.3 |
| 20260510093009 | 43 | 29 | 7.0 | 13.0 | 0.00 | 0.00 | 0.00 | 62 | 1018.2 |
| 20260510092508 | 44 | 355 | 5.2 | 11.3 | 0.00 | 0.00 | 0.00 | 60 | 1018.2 |
| 20260510092009 | 44 | 355 | 4.3 | 11.3 | 0.00 | 0.00 | 0.00 | 60 | 1018.1 |
| 20260510091505 | 44 | 9 | 3.5 | 13.9 | 0.00 | 0.00 | 0.00 | 58 | 1017.9 |
| 20260510091107 | 45 | 13 | 4.3 | 13.9 | 0.00 | 0.00 | 0.00 | 58 | 1017.9 |
| 20260510090503 | 45 | 36 | 6.1 | 13.0 | 0.00 | 0.00 | 0.00 | 57 | 1017.8 |
| 20260510090004 | 45 | 43 | 4.3 | 10.4 | 0.00 | 0.00 | 0.00 | 58 | 1017.7 |
| 20260510085600 | 45 | 11 | 6.1 | 12.2 | 0.00 | 0.00 | 0.00 | 58 | 1017.6 |
| 20260510085101 | 45 | 344 | 5.2 | 12.2 | 0.00 | 0.00 | 0.00 | 59 | 1017.5 |
| 20260510084612 | 45 | 348 | 4.3 | 8.7 | 0.00 | 0.00 | 0.00 | 59 | 1017.5 |
| 20260510084059 | 45 | 327 | 2.6 | 7.8 | 0.00 | 0.00 | 0.00 | 59 | 1017.5 |
| 20260510083556 | 45 | 355 | 3.5 | 7.8 | 0.00 | 0.00 | 0.00 | 59 | 1017.3 |
| 20260510083057 | 45 | 5 | 2.6 | 5.2 | 0.00 | 0.00 | 0.00 | 59 | 1017.3 |
| 20260510082556 | 45 | 5 | 2.6 | 7.0 | 0.00 | 0.00 | 0.00 | 59 | 1017.2 |
| 20260510082055 | 45 | 355 | 2.6 | 7.0 | 0.00 | 0.00 | 0.00 | 59 | 1017.2 |
| 20260510081557 | 45 | 5 | 3.5 | 7.0 | 0.00 | 0.00 | 0.00 | 59 | 1017.2 |
| 20260510081055 | 45 | 5 | 3.5 | 7.0 | 0.00 | 0.00 | 0.00 | 59 | 1017.1 |
| 20260510080557 | 45 | 340 | 3.5 | 7.0 | 0.00 | 0.00 | 0.00 | 59 | 1017.1 |
| 20260510080059 | 45 | 17 | 2.6 | 7.0 | 0.00 | 0.00 | 0.00 | 59 | 1017.0 |
| 20260510075553 | 45 | 347 | 2.6 | 7.0 | 0.00 | 0.00 | 0.00 | 59 | 1017.0 |
| 20260510075052 | 45 | 14 | 2.6 | 7.0 | 0.00 | 0.00 | 0.00 | 59 | 1017.0 |
| 20260510074553 | 45 | 350 | 3.5 | 7.0 | 0.00 | 0.00 | 0.00 | 59 | 1017.0 |
| 20260510074052 | 45 | 12 | 2.6 | 5.2 | 0.00 | 0.00 | 0.00 | 59 | 1017.0 |
| 20260510073551 | 45 | 21 | 1.7 | 4.3 | 0.00 | 0.00 | 0.00 | 59 | 1016.9 |
| 20260510073103 | 45 | 355 | 1.7 | 4.3 | 0.00 | 0.00 | 0.00 | 59 | 1016.8 |
| 20260510072551 | 45 | 5 | 1.7 | 4.3 | 0.00 | 0.00 | 0.00 | 59 | 1016.8 |
| 20260510072052 | 46 | 355 | 1.7 | 5.2 | 0.00 | 0.00 | 0.00 | 59 | 1016.8 |
| 20260510071552 | 46 | 26 | 2.6 | 5.2 | 0.00 | 0.00 | 0.00 | 59 | 1016.7 |
| 20260510071049 | 46 | 40 | 2.6 | 4.3 | 0.00 | 0.00 | 0.00 | 59 | 1016.6 |
| 20260510070547 | 46 | 15 | 1.7 | 5.2 | 0.00 | 0.00 | 0.00 | 58 | 1016.6 |
| 20260510070053 | 46 | 14 | 1.7 | 7.8 | 0.00 | 0.00 | 0.00 | 58 | 1016.6 |
| 20260510065547 | 46 | 24 | 2.6 | 7.8 | 0.00 | 0.00 | 0.00 | 58 | 1016.6 |
| 20260510065046 | 46 | 36 | 3.5 | 7.8 | 0.00 | 0.00 | 0.00 | 57 | 1016.5 |
| 20260510064550 | 46 | 26 | 3.5 | 7.8 | 0.00 | 0.00 | 0.00 | 57 | 1016.5 |
| 20260510064043 | 46 | 360 | 2.6 | 7.8 | 0.00 | 0.00 | 0.00 | 56 | 1016.4 |
| 20260510063542 | 47 | 19 | 1.7 | 7.0 | 0.00 | 0.00 | 0.00 | 55 | 1016.3 |
| 20260510063047 | 47 | 11 | 2.6 | 7.8 | 0.00 | 0.00 | 0.00 | 55 | 1016.3 |
| 20260510062540 | 47 | 38 | 4.3 | 7.8 | 0.00 | 0.00 | 0.00 | 54 | 1016.3 |
| 20260510062039 | 47 | 348 | 2.6 | 5.2 | 0.00 | 0.00 | 0.00 | 54 | 1016.2 |
| 20260510061538 | 47 | 360 | 1.7 | 5.2 | 0.00 | 0.00 | 0.00 | 53 | 1016.2 |
| 20260510061040 | 47 | 5 | 2.6 | 5.2 | 0.00 | 0.00 | 0.00 | 53 | 1016.1 |
| 20260510060537 | 47 | 355 | 2.6 | 5.2 | 0.00 | 0.00 | 0.00 | 53 | 1016.1 |
| 20260510060036 | 47 | 345 | 1.7 | 5.2 | 0.00 | 0.00 | 0.00 | 53 | 1016.0 |
| 20260510055535 | 47 | 5 | 2.6 | 5.2 | 0.00 | 0.00 | 0.00 | 53 | 1015.8 |
| 20260510055035 | 47 | 20 | 1.7 | 5.2 | 0.00 | 0.00 | 0.00 | 53 | 1015.8 |
| 20260510054535 | 47 | 355 | 2.6 | 4.3 | 0.00 | 0.00 | 0.00 | 53 | 1015.8 |
| 20260510054031 | 47 | 5 | 0.9 | 2.6 | 0.00 | 0.00 | 0.00 | 53 | 1015.7 |
| 20260510053530 | 47 | 5 | 0.9 | 2.6 | 0.00 | 0.00 | 0.00 | 53 | 1015.4 |
| 20260510053030 | 47 | 5 | 0.9 | 2.6 | 0.00 | 0.00 | 0.00 | 53 | 1015.4 |
| 20260510052529 | 47 | 5 | 0.9 | 3.5 | 0.00 | 0.00 | 0.00 | 53 | 1015.3 |
| 20260510052029 | 47 | 5 | 0.9 | 3.5 | 0.00 | 0.00 | 0.00 | 54 | 1015.3 |
| 20260510051528 | 47 | 360 | 1.7 | 2.6 | 0.00 | 0.00 | 0.00 | 54 | 1015.2 |
| 20260510051028 | 47 | 21 | 0.9 | 2.6 | 0.00 | 0.00 | 0.00 | 54 | 1015.1 |
| 20260510050526 | 47 | 355 | 0.9 | 2.6 | 0.00 | 0.00 | 0.00 | 55 | 1015.1 |
| 20260510050024 | 47 | 355 | 0.0 | 0.0 | 0.00 | 0.00 | 0.00 | 55 | 1015.1 |
| 20260510045524 | 47 | 344 | 0.0 | 0.0 | 0.00 | 0.00 | 0.17 | 55 | 1015.1 |
| 20260510045024 | 47 | 344 | 0.0 | 0.0 | 0.00 | 0.00 | 0.17 | 55 | 1015.0 |
| 20260510044531 | 47 | 344 | 0.0 | 0.0 | 0.00 | 0.00 | 0.17 | 55 | 1014.9 |
| 20260510044023 | 47 | 344 | 0.0 | 0.0 | 0.00 | 0.00 | 0.17 | 56 | 1014.8 |
| 20260510043523 | 47 | 344 | 0.0 | 0.0 | 0.00 | 0.00 | 0.17 | 56 | 1014.9 |
| 20260510043024 | 47 | 342 | 0.0 | 0.0 | 0.00 | 0.00 | 0.17 | 56 | 1014.9 |
| 20260510042524 | 47 | 341 | 0.0 | 0.0 | 0.00 | 0.00 | 0.17 | 55 | 1015.0 |
| 20260510042022 | 48 | 341 | 0.0 | 0.0 | 0.00 | 0.00 | 0.17 | 55 | 1014.9 |
| 20260510041522 | 48 | 341 | 0.0 | 0.0 | 0.00 | 0.00 | 0.17 | 54 | 1014.9 |
| 20260510041021 | 48 | 341 | 0.0 | 0.0 | 0.00 | 0.00 | 0.17 | 53 | 1014.9 |
| 20260510040521 | 48 | 341 | 0.0 | 0.0 | 0.00 | 0.00 | 0.17 | 53 | 1014.8 |
| 20260510040021 | 48 | 341 | 0.0 | 0.0 | 0.00 | 0.00 | 0.17 | 52 | 1014.7 |
| 20260510035520 | 48 | 341 | 0.0 | 0.0 | 0.00 | 0.00 | 0.17 | 52 | 1014.7 |
| 20260510035021 | 49 | 341 | 0.0 | 0.0 | 0.00 | 0.00 | 0.17 | 51 | 1014.7 |
| 20260510034519 | 49 | 341 | 0.0 | 0.0 | 0.00 | 0.00 | 0.17 | 50 | 1014.6 |
| 20260510034018 | 49 | 341 | 0.0 | 0.0 | 0.00 | 0.00 | 0.17 | 49 | 1014.5 |
| 20260510033519 | 49 | 341 | 0.0 | 0.0 | 0.00 | 0.00 | 0.17 | 49 | 1014.5 |
| 20260510033019 | 50 | 341 | 0.0 | 0.0 | 0.00 | 0.00 | 0.17 | 48 | 1014.5 |
| 20260510032518 | 50 | 341 | 0.0 | 0.0 | 0.00 | 0.00 | 0.17 | 47 | 1014.4 |
| 20260510032019 | 50 | 341 | 0.0 | 0.0 | 0.00 | 0.00 | 0.17 | 47 | 1014.4 |
| 20260510031519 | 50 | 341 | 0.0 | 0.0 | 0.00 | 0.00 | 0.17 | 47 | 1014.4 |
| 20260510031016 | 50 | 341 | 0.0 | 1.7 | 0.00 | 0.00 | 0.17 | 46 | 1014.4 |
| 20260510030516 | 51 | 341 | 0.0 | 1.7 | 0.00 | 0.00 | 0.17 | 46 | 1014.4 |
| 20260510030016 | 51 | 341 | 0.9 | 2.6 | 0.00 | 0.00 | 0.17 | 46 | 1014.4 |
| 20260510025515 | 51 | 341 | 0.9 | 2.6 | 0.00 | 0.00 | 0.17 | 45 | 1014.2 |
| 20260510025015 | 51 | 340 | 0.9 | 2.6 | 0.00 | 0.00 | 0.17 | 45 | 1014.2 |
| 20260510024516 | 52 | 338 | 0.0 | 2.6 | 0.00 | 0.00 | 0.17 | 44 | 1014.2 |
| 20260510024015 | 52 | 338 | 0.9 | 2.6 | 0.00 | 0.00 | 0.17 | 44 | 1014.1 |
| 20260510023513 | 52 | 337 | 0.9 | 2.6 | 0.00 | 0.00 | 0.17 | 44 | 1014.2 |
| 20260510023013 | 52 | 336 | 0.9 | 2.6 | 0.00 | 0.00 | 0.17 | 44 | 1014.0 |
| 20260510022514 | 53 | 336 | 0.0 | 4.3 | 0.00 | 0.00 | 0.17 | 43 | 1014.0 |
| 20260510022012 | 53 | 336 | 0.9 | 5.2 | 0.00 | 0.00 | 0.17 | 43 | 1014.0 |
| 20260510021514 | 53 | 337 | 2.6 | 5.2 | 0.00 | 0.00 | 0.17 | 43 | 1013.9 |
| 20260510021010 | 53 | 16 | 1.7 | 7.8 | 0.00 | 0.00 | 0.17 | 42 | 1013.8 |
| 20260510020518 | 53 | 336 | 2.6 | 7.8 | 0.00 | 0.00 | 0.17 | 42 | 1013.6 |
| 20260510020010 | 53 | 331 | 2.6 | 7.8 | 0.00 | 0.00 | 0.17 | 42 | 1013.6 |
| 20260510015509 | 54 | 338 | 3.5 | 9.6 | 0.00 | 0.00 | 0.17 | 41 | 1013.6 |
| 20260510015013 | 54 | 329 | 5.2 | 9.6 | 0.00 | 0.00 | 0.17 | 41 | 1013.5 |
| 20260510014509 | 54 | 313 | 3.5 | 8.7 | 0.00 | 0.00 | 0.17 | 41 | 1013.5 |
| 20260510014008 | 54 | 336 | 5.2 | 11.3 | 0.00 | 0.00 | 0.17 | 40 | 1013.4 |
| 20260510013508 | 54 | 355 | 5.2 | 11.3 | 0.00 | 0.00 | 0.17 | 40 | 1013.4 |
| 20260510013009 | 54 | 330 | 5.2 | 11.3 | 0.00 | 0.00 | 0.17 | 40 | 1013.4 |
| 20260510012507 | 54 | 320 | 4.3 | 11.3 | 0.00 | 0.00 | 0.17 | 40 | 1013.3 |
| 20260510012007 | 54 | 335 | 7.0 | 13.0 | 0.00 | 0.00 | 0.17 | 39 | 1013.2 |
| 20260510011509 | 54 | 346 | 6.1 | 13.0 | 0.00 | 0.00 | 0.17 | 40 | 1013.2 |
| 20260510011006 | 54 | 296 | 2.6 | 8.7 | 0.00 | 0.00 | 0.17 | 40 | 1013.1 |
| 20260510010505 | 55 | 339 | 4.3 | 12.2 | 0.00 | 0.00 | 0.17 | 39 | 1013.1 |
| 20260510010112 | 55 | 340 | 6.1 | 13.0 | 0.00 | 0.00 | 0.17 | 39 | 1013.1 |
| 20260510005505 | 55 | 333 | 6.1 | 13.9 | 0.00 | 0.00 | 0.17 | 39 | 1013.1 |
| 20260510005005 | 55 | 5 | 6.1 | 13.9 | 0.00 | 0.00 | 0.17 | 39 | 1013.0 |
| 20260510004504 | 55 | 285 | 7.0 | 14.8 | 0.00 | 0.00 | 0.17 | 39 | 1013.1 |
| 20260510004005 | 55 | 326 | 7.8 | 14.8 | 0.00 | 0.00 | 0.17 | 38 | 1013.0 |
| 20260510003504 | 55 | 318 | 6.1 | 12.2 | 0.00 | 0.00 | 0.17 | 39 | 1013.0 |
| 20260510003004 | 55 | 319 | 6.1 | 14.8 | 0.00 | 0.00 | 0.17 | 39 | 1013.1 |
| 20260510002503 | 55 | 298 | 7.0 | 14.8 | 0.00 | 0.00 | 0.17 | 38 | 1013.1 |
| 20260510002003 | 55 | 272 | 6.1 | 16.5 | 0.00 | 0.00 | 0.17 | 38 | 1013.0 |
| 20260510001502 | 55 | 327 | 9.6 | 16.5 | 0.00 | 0.00 | 0.17 | 38 | 1013.0 |
| 20260510001002 | 55 | 323 | 7.8 | 12.2 | 0.00 | 0.00 | 0.17 | 39 | 1013.0 |
| 20260510000502 | 56 | 315 | 6.1 | 13.9 | 0.00 | 0.00 | 0.17 | 39 | 1013.0 |
| 20260510000001 | 56 | 293 | 7.8 | 13.9 | 0.00 | 0.00 | 0.17 | 38 | 1012.9 |
| 20260509235603 | 56 | 286 | 7.0 | 16.5 | 0.00 | 0.00 | 0.17 | 38 | 1012.7 |
| 20260509235100 | 56 | 329 | 8.7 | 16.5 | 0.00 | 0.00 | 0.17 | 37 | 1012.7 |
| 20260509234602 | 56 | 331 | 8.7 | 14.8 | 0.00 | 0.00 | 0.17 | 38 | 1012.7 |
| 20260509234101 | 56 | 340 | 8.7 | 14.8 | 0.00 | 0.00 | 0.17 | 38 | 1012.8 |
| 20260509233558 | 56 | 325 | 7.8 | 13.9 | 0.00 | 0.00 | 0.17 | 39 | 1012.6 |
| 20260509233059 | 56 | 345 | 7.0 | 12.2 | 0.00 | 0.00 | 0.17 | 38 | 1012.6 |
| 20260509232600 | 56 | 324 | 6.1 | 13.0 | 0.00 | 0.00 | 0.17 | 40 | 1012.6 |
| 20260509232059 | 55 | 323 | 6.1 | 13.9 | 0.00 | 0.00 | 0.17 | 39 | 1012.7 |
| 20260509231558 | 55 | 322 | 7.0 | 13.9 | 0.00 | 0.00 | 0.17 | 39 | 1012.6 |
| 20260509231058 | 55 | 336 | 5.2 | 15.6 | 0.00 | 0.00 | 0.17 | 39 | 1012.6 |
| 20260509230557 | 56 | 310 | 6.1 | 18.2 | 0.00 | 0.00 | 0.17 | 38 | 1012.6 |
| 20260509230057 | 56 | 326 | 10.4 | 18.2 | 0.00 | 0.00 | 0.17 | 38 | 1012.5 |
| 20260509225555 | 56 | 306 | 7.0 | 16.5 | 0.00 | 0.00 | 0.17 | 39 | 1012.6 |
| 20260509225055 | 56 | 10 | 9.6 | 18.2 | 0.00 | 0.00 | 0.17 | 37 | 1012.4 |
| 20260509224555 | 56 | 336 | 11.3 | 18.2 | 0.00 | 0.00 | 0.17 | 36 | 1012.5 |
| 20260509224059 | 56 | 215 | 3.5 | 13.0 | 0.00 | 0.00 | 0.17 | 37 | 1012.4 |
| 20260509223555 | 57 | 360 | 7.0 | 17.4 | 0.00 | 0.00 | 0.17 | 37 | 1012.3 |
| 20260509223101 | 57 | 336 | 8.7 | 17.4 | 0.00 | 0.00 | 0.17 | 38 | 1012.3 |
| 20260509222555 | 56 | 286 | 7.8 | 15.6 | 0.00 | 0.00 | 0.17 | 37 | 1012.3 |
| 20260509222054 | 56 | 296 | 7.0 | 16.5 | 0.00 | 0.00 | 0.17 | 38 | 1012.4 |
| 20260509221554 | 56 | 315 | 7.8 | 20.9 | 0.00 | 0.00 | 0.17 | 38 | 1012.4 |
| 20260509221054 | 56 | 275 | 8.7 | 20.9 | 0.00 | 0.00 | 0.17 | 40 | 1012.4 |
| 20260509220554 | 56 | 321 | 7.8 | 18.2 | 0.00 | 0.00 | 0.17 | 39 | 1012.3 |
| 20260509220053 | 56 | 333 | 10.4 | 18.2 | 0.00 | 0.00 | 0.17 | 39 | 1012.4 |
| 20260509215553 | 57 | 292 | 8.7 | 20.0 | 0.00 | 0.00 | 0.17 | 38 | 1012.4 |
| 20260509215053 | 57 | 345 | 10.4 | 20.0 | 0.00 | 0.00 | 0.17 | 38 | 1012.3 |
| 20260509214552 | 57 | 317 | 8.7 | 18.2 | 0.00 | 0.00 | 0.17 | 39 | 1012.2 |
| 20260509214052 | 58 | 355 | 10.4 | 19.1 | 0.00 | 0.00 | 0.17 | 39 | 1012.2 |
| 20260509213552 | 57 | 336 | 10.4 | 19.1 | 0.00 | 0.00 | 0.17 | 38 | 1012.3 |
| 20260509213052 | 57 | 317 | 7.8 | 14.8 | 0.00 | 0.00 | 0.17 | 39 | 1012.3 |
| 20260509212552 | 56 | 298 | 7.0 | 17.4 | 0.00 | 0.00 | 0.17 | 40 | 1012.3 |
| 20260509212051 | 57 | 317 | 10.4 | 17.4 | 0.00 | 0.00 | 0.17 | 38 | 1012.3 |
| 20260509211551 | 56 | 286 | 3.5 | 13.0 | 0.00 | 0.00 | 0.17 | 39 | 1012.2 |
| 20260509211051 | 56 | 273 | 7.0 | 15.6 | 0.00 | 0.00 | 0.17 | 39 | 1012.2 |
| 20260509210552 | 56 | 302 | 7.0 | 16.5 | 0.00 | 0.00 | 0.17 | 39 | 1012.3 |
| 20260509210057 | 56 | 331 | 10.4 | 16.5 | 0.00 | 0.00 | 0.17 | 40 | 1012.3 |
| 20260509205653 | 56 | 317 | 7.8 | 14.8 | 0.00 | 0.00 | 0.17 | 39 | 1012.2 |
| 20260509205054 | 57 | 360 | 9.6 | 15.6 | 0.00 | 0.00 | 0.17 | 39 | 1012.2 |
| 20260509204554 | 56 | 331 | 7.0 | 15.6 | 0.00 | 0.00 | 0.17 | 38 | 1012.2 |
| 20260509204050 | 56 | 318 | 8.7 | 16.5 | 0.00 | 0.00 | 0.17 | 39 | 1012.3 |
| 20260509203549 | 56 | 321 | 10.4 | 16.5 | 0.00 | 0.00 | 0.17 | 38 | 1012.3 |
| 20260509203049 | 57 | 334 | 7.0 | 19.1 | 0.00 | 0.00 | 0.17 | 40 | 1012.2 |
| 20260509202549 | 57 | 307 | 9.6 | 19.1 | 0.00 | 0.00 | 0.17 | 39 | 1012.2 |
| 20260509202048 | 58 | 323 | 8.7 | 19.1 | 0.00 | 0.00 | 0.17 | 39 | 1012.2 |
| 20260509201549 | 56 | 351 | 8.7 | 20.0 | 0.00 | 0.00 | 0.17 | 39 | 1012.2 |
| 20260509201047 | 57 | 242 | 9.6 | 20.0 | 0.00 | 0.00 | 0.17 | 41 | 1012.2 |
| 20260509200546 | 57 | 355 | 8.7 | 19.1 | 0.00 | 0.00 | 0.17 | 39 | 1012.1 |
| 20260509195545 | 56 | 311 | 7.8 | 21.7 | 0.00 | 0.00 | 0.17 | 41 | 1012.1 |
| 20260509195043 | 56 | 17 | 9.6 | 21.7 | 0.00 | 0.00 | 0.17 | 40 | 1012.1 |
| 20260509194545 | 56 | 355 | 8.7 | 15.6 | 0.00 | 0.00 | 0.17 | 42 | 1012.0 |
| 20260509194043 | 55 | 309 | 5.2 | 18.2 | 0.00 | 0.00 | 0.17 | 41 | 1012.0 |
| 20260509193542 | 55 | 275 | 8.7 | 18.2 | 0.00 | 0.00 | 0.17 | 42 | 1012.1 |
| 20260509193043 | 55 | 302 | 6.1 | 16.5 | 0.00 | 0.00 | 0.17 | 41 | 1012.0 |
| 20260509192541 | 56 | 306 | 8.7 | 16.5 | 0.00 | 0.00 | 0.17 | 42 | 1012.0 |
| 20260509192042 | 55 | 334 | 7.0 | 16.5 | 0.00 | 0.00 | 0.17 | 43 | 1012.0 |
| 20260509191541 | 55 | 346 | 8.7 | 15.6 | 0.00 | 0.00 | 0.17 | 44 | 1012.0 |
| 20260509191041 | 56 | 345 | 6.1 | 15.6 | 0.00 | 0.00 | 0.17 | 45 | 1012.0 |
| 20260509190540 | 56 | 192 | 6.1 | 16.5 | 0.00 | 0.00 | 0.17 | 44 | 1012.0 |
| 20260509190040 | 56 | 261 | 8.7 | 16.5 | 0.00 | 0.00 | 0.17 | 45 | 1012.0 |
| 20260509185539 | 55 | 322 | 5.2 | 17.4 | 0.00 | 0.00 | 0.17 | 46 | 1011.9 |
| 20260509185039 | 55 | 329 | 11.3 | 17.4 | 0.00 | 0.00 | 0.17 | 45 | 1012.0 |
| 20260509184554 | 55 | 319 | 7.0 | 22.6 | 0.00 | 0.00 | 0.17 | 44 | 1012.0 |
| 20260509184037 | 55 | 13 | 11.3 | 22.6 | 0.00 | 0.00 | 0.17 | 47 | 1012.0 |
| 20260509183536 | 54 | 340 | 6.1 | 17.4 | 0.00 | 0.00 | 0.17 | 48 | 1012.0 |
| 20260509183036 | 54 | 282 | 7.0 | 15.6 | 0.00 | 0.00 | 0.17 | 48 | 1012.1 |
| 20260509182536 | 54 | 300 | 6.1 | 15.6 | 0.00 | 0.00 | 0.17 | 49 | 1012.0 |
| 20260509182035 | 54 | 339 | 7.8 | 15.6 | 0.00 | 0.00 | 0.17 | 47 | 1011.9 |
| 20260509181533 | 54 | 294 | 8.7 | 17.4 | 0.00 | 0.00 | 0.17 | 49 | 1011.9 |
| 20260509181034 | 53 | 319 | 8.7 | 17.4 | 0.00 | 0.00 | 0.17 | 49 | 1011.9 |
| 20260509180533 | 53 | 344 | 9.6 | 16.5 | 0.00 | 0.00 | 0.17 | 49 | 1011.9 |
| 20260509180032 | 53 | 295 | 7.8 | 15.6 | 0.00 | 0.00 | 0.17 | 50 | 1011.9 |
| 20260509175531 | 53 | 313 | 7.8 | 15.6 | 0.00 | 0.00 | 0.17 | 50 | 1012.0 |
| 20260509175033 | 53 | 338 | 7.0 | 17.4 | 0.00 | 0.00 | 0.17 | 49 | 1011.9 |
| 20260509174535 | 53 | 302 | 10.4 | 19.1 | 0.00 | 0.00 | 0.17 | 49 | 1011.9 |
| 20260509174029 | 52 | 324 | 7.8 | 16.5 | 0.00 | 0.00 | 0.17 | 50 | 1011.9 |
| 20260509173529 | 52 | 327 | 5.2 | 18.2 | 0.00 | 0.00 | 0.17 | 50 | 1011.9 |
| 20260509173029 | 52 | 312 | 8.7 | 20.0 | 0.00 | 0.00 | 0.17 | 50 | 1011.9 |
| 20260509172527 | 52 | 338 | 7.8 | 20.0 | 0.00 | 0.00 | 0.17 | 51 | 1011.9 |
| 20260509172027 | 51 | 333 | 7.8 | 17.4 | 0.00 | 0.00 | 0.17 | 52 | 1011.8 |
| 20260509171531 | 51 | 322 | 8.7 | 17.4 | 0.00 | 0.00 | 0.17 | 51 | 1011.9 |
| 20260509171025 | 51 | 297 | 7.8 | 17.4 | 0.00 | 0.00 | 0.17 | 52 | 1011.9 |
| 20260509170525 | 51 | 311 | 8.7 | 17.4 | 0.00 | 0.00 | 0.17 | 51 | 1011.9 |
| 20260509170025 | 51 | 342 | 7.8 | 14.8 | 0.00 | 0.00 | 0.17 | 52 | 1011.8 |
| 20260509165527 | 51 | 262 | 3.5 | 13.9 | 0.00 | 0.00 | 0.17 | 53 | 1011.7 |
| 20260509165023 | 51 | 288 | 7.8 | 14.8 | 0.00 | 0.00 | 0.17 | 54 | 1011.7 |
| 20260509164523 | 51 | 300 | 8.7 | 14.8 | 0.00 | 0.00 | 0.17 | 54 | 1011.8 |
| 20260509164021 | 50 | 350 | 7.0 | 13.0 | 0.00 | 0.00 | 0.17 | 54 | 1011.7 |
| 20260509163529 | 51 | 304 | 6.1 | 17.4 | 0.00 | 0.00 | 0.17 | 54 | 1011.6 |
| 20260509163023 | 50 | 342 | 8.7 | 17.4 | 0.00 | 0.00 | 0.17 | 52 | 1011.6 |
| 20260509162519 | 50 | 347 | 7.8 | 15.6 | 0.00 | 0.00 | 0.17 | 53 | 1011.6 |
| 20260509162019 | 50 | 36 | 7.8 | 15.6 | 0.00 | 0.00 | 0.17 | 54 | 1011.5 |
| 20260509161517 | 50 | 302 | 9.6 | 15.6 | 0.00 | 0.00 | 0.17 | 51 | 1011.5 |
| 20260509161016 | 50 | 296 | 6.1 | 14.8 | 0.00 | 0.00 | 0.17 | 55 | 1011.4 |
| 20260509160516 | 49 | 355 | 8.7 | 14.8 | 0.00 | 0.00 | 0.17 | 53 | 1011.3 |
| 20260509160015 | 49 | 355 | 9.6 | 18.2 | 0.00 | 0.00 | 0.17 | 54 | 1011.5 |
| 20260509155514 | 50 | 324 | 9.6 | 15.6 | 0.00 | 0.00 | 0.17 | 53 | 1011.2 |
| 20260509155013 | 49 | 340 | 7.0 | 14.8 | 0.00 | 0.00 | 0.17 | 52 | 1011.2 |
| 20260509154515 | 49 | 350 | 6.1 | 17.4 | 0.00 | 0.00 | 0.17 | 54 | 1011.2 |
| 20260509154011 | 49 | 229 | 6.1 | 17.4 | 0.00 | 0.00 | 0.17 | 55 | 1011.1 |
| 20260509153509 | 49 | 355 | 7.8 | 15.6 | 0.00 | 0.00 | 0.17 | 54 | 1011.1 |
| 20260509153020 | 49 | 288 | 6.1 | 18.2 | 0.00 | 0.00 | 0.17 | 54 | 1011.1 |
| 20260509152507 | 49 | 318 | 8.7 | 18.2 | 0.00 | 0.00 | 0.17 | 54 | 1010.9 |
| 20260509152008 | 48 | 315 | 7.0 | 16.5 | 0.00 | 0.00 | 0.17 | 55 | 1010.8 |
| 20260509151504 | 48 | 333 | 6.1 | 15.6 | 0.00 | 0.00 | 0.17 | 56 | 1010.8 |
| 20260509151002 | 48 | 334 | 7.8 | 14.8 | 0.00 | 0.00 | 0.17 | 57 | 1010.8 |
| 20260509150501 | 48 | 325 | 9.6 | 14.8 | 0.00 | 0.00 | 0.17 | 57 | 1010.7 |
| 20260509150100 | 47 | 12 | 7.8 | 14.8 | 0.00 | 0.00 | 0.17 | 57 | 1010.7 |
| 20260509145559 | 47 | 335 | 7.8 | 14.8 | 0.00 | 0.00 | 0.17 | 56 | 1010.6 |
| 20260509145058 | 47 | 5 | 8.7 | 17.4 | 0.00 | 0.00 | 0.17 | 57 | 1010.6 |
| 20260509144608 | 47 | 347 | 8.7 | 17.4 | 0.00 | 0.00 | 0.17 | 56 | 1010.6 |
| 20260509144057 | 47 | 315 | 7.0 | 15.6 | 0.00 | 0.00 | 0.17 | 58 | 1010.5 |
| 20260509143553 | 47 | 327 | 5.2 | 16.5 | 0.00 | 0.00 | 0.17 | 61 | 1010.5 |
| 20260509143116 | 46 | 320 | 8.7 | 17.4 | 0.00 | 0.00 | 0.17 | 59 | 1010.3 |
| 20260509142550 | 46 | 332 | 10.4 | 17.4 | 0.00 | 0.00 | 0.17 | 59 | 1010.3 |
| 20260509142050 | 46 | 53 | 7.0 | 13.9 | 0.00 | 0.00 | 0.17 | 60 | 1010.1 |
| 20260509141547 | 45 | 315 | 7.0 | 20.0 | 0.00 | 0.00 | 0.17 | 61 | 1010.1 |
| 20260509141047 | 45 | 325 | 9.6 | 20.0 | 0.00 | 0.00 | 0.17 | 59 | 1010.2 |
| 20260509140547 | 45 | 278 | 6.1 | 15.6 | 0.00 | 0.00 | 0.17 | 62 | 1010.1 |
| 20260509140049 | 44 | 321 | 9.6 | 15.6 | 0.00 | 0.00 | 0.17 | 61 | 1010.1 |
| 20260509135546 | 45 | 318 | 6.1 | 14.8 | 0.00 | 0.00 | 0.17 | 61 | 1010.1 |